Welcome to Northern Hawkes Bay. New Zealand.
PWS Header
      nz Flag



Hit Counter


W3C Valid W3C Valid logo


    Wairoa

Select any of the Stations below to visit their websites.










Historic Data from Weather Underground
Select the location of interest below. Wairoa is the default. Please have patience, this Data is slow to load in.
Northern Hawkes Bay Historical Data
Daily Summary for September 1, 2017 Units:  Metric    English   Both
« Previous Day
Next Day »
Daily Weekly Monthly Yearly Custom
  High: Low: Average:
Temperature: 17.2 °C 8.3 °C 10.9 °C
Dew Point: 13.2 °C 8.2 °C 10.1 °C
Humidity: 99% 71% 95%
Wind Speed: 17.2km/h 0.0km/h 4.5km/h
Wind Gust: 24.5km/h - -
Wind- - SW
Pressure: 1012.4 hPa 1008.7 hPa -
Precipitation: 3.6 mm    
Historical Graphs
 
 
Tabular Data for September 1, 2017
Time Temperature Dew Point Pressure Wind Wind Speed Wind Gust Humidity Rainfall Rate (Hourly) solar
00:00 10.9 °C 10.8 °C 1009.4 hPa Calm     99% 0.0 mm 0 W/m2
00:05 10.9 °C 10.8 °C 1009.4 hPa Calm     99% 0.0 mm 0 W/m2
00:10 10.9 °C 10.8 °C 1009.4 hPa Calm     99% 0.0 mm 0 W/m2
00:15 10.9 °C 10.8 °C 1009.4 hPa Calm     99% 0.0 mm 0 W/m2
00:20 10.9 °C 10.8 °C 1009.4 hPa Calm     99% 0.0 mm 0 W/m2
00:25 10.9 °C 10.8 °C 1009.4 hPa Calm     99% 0.0 mm 0 W/m2
00:30 10.9 °C 10.8 °C 1009.4 hPa Calm     99% 0.0 mm 0 W/m2
00:35 10.9 °C 10.8 °C 1009.4 hPa Calm     99% 0.0 mm 0 W/m2
00:40 10.9 °C 10.8 °C 1009.4 hPa Calm     99% 0.0 mm 0 W/m2
00:45 10.8 °C 10.7 °C 1009.7 hPa Calm     99% 0.0 mm 0 W/m2
00:50 10.8 °C 10.7 °C 1009.7 hPa Calm     99% 0.0 mm 0 W/m2
00:55 10.8 °C 10.7 °C 1009.4 hPa North 3.5 km/h 6.1 km/h 99% 0.0 mm 0 W/m2
01:00 10.8 °C 10.7 °C 1009.4 hPa NNW 2.6 km/h 6.1 km/h 99% 0.0 mm 0 W/m2
01:05 10.8 °C 10.7 °C 1009.7 hPa NW 2.6 km/h 6.1 km/h 99% 0.0 mm 0 W/m2
01:10 10.8 °C 10.7 °C 1009.4 hPa NNW 3.5 km/h 6.1 km/h 99% 0.0 mm 0 W/m2
01:15 10.8 °C 10.7 °C 1009.4 hPa NNW 3.5 km/h 6.1 km/h 99% 0.0 mm 0 W/m2
01:20 10.8 °C 10.7 °C 1009.4 hPa NNW 2.6 km/h 6.1 km/h 99% 0.0 mm 0 W/m2
01:25 10.7 °C 10.6 °C 1009.4 hPa NNW 1.1 km/h 6.1 km/h 99% 0.0 mm 0 W/m2
01:30 10.7 °C 10.6 °C 1009.4 hPa Calm   3.5 km/h 99% 0.0 mm 0 W/m2
01:35 10.7 °C 10.6 °C 1009.4 hPa Calm   3.5 km/h 99% 0.0 mm 0 W/m2
01:40 10.7 °C 10.6 °C 1009.0 hPa NE 2.6 km/h 3.5 km/h 99% 0.0 mm 0 W/m2
01:45 10.7 °C 10.6 °C 1009.4 hPa NNE 2.6 km/h 5.0 km/h 99% 0.0 mm 0 W/m2
01:50 10.6 °C 10.4 °C 1009.4 hPa North 3.5 km/h 5.0 km/h 99% 0.0 mm 0 W/m2
01:55 10.6 °C 10.4 °C 1009.4 hPa North 1.1 km/h 5.0 km/h 99% 0.0 mm 0 W/m2
02:00 10.6 °C 10.4 °C 1009.0 hPa North 2.6 km/h 5.0 km/h 99% 0.0 mm 0 W/m2
02:05 10.6 °C 10.4 °C 1009.0 hPa North 1.1 km/h 5.0 km/h 99% 0.0 mm 0 W/m2
02:10 10.6 °C 10.4 °C 1009.0 hPa North 1.1 km/h 6.1 km/h 99% 0.0 mm 0 W/m2
02:15 10.6 °C 10.4 °C 1009.0 hPa NNW 1.1 km/h 6.1 km/h 99% 0.0 mm 0 W/m2
02:20 10.6 °C 10.4 °C 1009.0 hPa NNW 1.1 km/h 3.5 km/h 99% 0.0 mm 0 W/m2
02:25 10.6 °C 10.4 °C 1009.0 hPa NNW 2.6 km/h 5.0 km/h 99% 0.0 mm 0 W/m2
02:30 10.6 °C 10.4 °C 1009.4 hPa Calm   5.0 km/h 99% 0.0 mm 0 W/m2
02:35 10.6 °C 10.4 °C 1009.0 hPa NNW 1.1 km/h 3.5 km/h 99% 0.0 mm 0 W/m2
02:40 10.6 °C 10.4 °C 1009.0 hPa North 1.1 km/h 2.6 km/h 99% 0.0 mm 0 W/m2
02:45 10.6 °C 10.4 °C 1009.0 hPa NNW 1.1 km/h 3.5 km/h 99% 0.0 mm 0 W/m2
02:50 10.6 °C 10.4 °C 1008.7 hPa NW 1.1 km/h 3.5 km/h 99% 0.0 mm 0 W/m2
02:55 10.6 °C 10.4 °C 1009.0 hPa NW 2.6 km/h 5.0 km/h 99% 0.0 mm 0 W/m2
03:00 10.6 °C 10.4 °C 1009.0 hPa NW 3.5 km/h 6.1 km/h 99% 0.0 mm 0 W/m2
03:05 10.5 °C 10.3 °C 1009.0 hPa NW 3.5 km/h 6.1 km/h 99% 0.0 mm 0 W/m2
03:10 10.5 °C 10.3 °C 1009.0 hPa NW 5.0 km/h 7.2 km/h 99% 0.0 mm 0 W/m2
03:15 10.5 °C 10.3 °C 1008.7 hPa NW 7.2 km/h 8.7 km/h 99% 0.0 mm 0 W/m2
03:20 10.5 °C 10.3 °C 1008.7 hPa NNW 5.0 km/h 8.7 km/h 99% 0.0 mm 0 W/m2
03:25 10.5 °C 10.3 °C 1008.7 hPa NNW 3.5 km/h 8.7 km/h 99% 0.0 mm 0 W/m2
03:30 10.5 °C 10.3 °C 1009.0 hPa NNW 3.5 km/h 7.2 km/h 99% 0.0 mm 0 W/m2
03:35 10.5 °C 10.3 °C 1008.7 hPa NNW 2.6 km/h 7.2 km/h 99% 0.0 mm 0 W/m2
03:41 10.5 °C 10.3 °C 1009.0 hPa North 2.6 km/h 6.1 km/h 99% 0.0 mm 0 W/m2
03:45 10.5 °C 10.3 °C 1009.0 hPa NNW 2.6 km/h 5.0 km/h 99% 0.0 mm 0 W/m2
03:50 10.5 °C 10.3 °C 1009.0 hPa NNW 2.6 km/h 6.1 km/h 99% 0.0 mm 0 W/m2
03:55 10.5 °C 10.3 °C 1009.0 hPa NNW 2.6 km/h 7.2 km/h 99% 0.0 mm 0 W/m2
04:00 10.5 °C 10.3 °C 1009.0 hPa NNW 2.6 km/h 7.2 km/h 99% 0.0 mm 0 W/m2
04:05 10.5 °C 10.3 °C 1009.0 hPa NNW 5.0 km/h 8.7 km/h 99% 0.0 mm 0 W/m2
04:10 10.5 °C 10.3 °C 1009.0 hPa NNW 6.1 km/h 9.7 km/h 99% 0.0 mm 0 W/m2
04:15 10.5 °C 10.3 °C 1009.0 hPa NNW 5.0 km/h 9.7 km/h 99% 0.0 mm 0 W/m2
04:20 10.5 °C 10.3 °C 1009.4 hPa NNW 5.0 km/h 9.7 km/h 99% 0.0 mm 0 W/m2
04:25 10.5 °C 10.3 °C 1009.0 hPa NNW 3.5 km/h 9.7 km/h 99% 0.0 mm 0 W/m2
04:30 10.5 °C 10.3 °C 1009.0 hPa NNW 5.0 km/h 8.7 km/h 99% 0.0 mm 0 W/m2
04:35 10.5 °C 10.3 °C 1009.4 hPa NNW 3.5 km/h 8.7 km/h 99% 0.0 mm 0 W/m2
04:40 10.5 °C 10.3 °C 1009.4 hPa NNW 2.6 km/h 8.7 km/h 99% 0.0 mm 0 W/m2
04:45 10.4 °C 10.3 °C 1009.4 hPa NNW 3.5 km/h 7.2 km/h 99% 0.0 mm 0 W/m2
04:50 10.4 °C 10.3 °C 1009.0 hPa North 2.6 km/h 6.1 km/h 99% 0.0 mm 0 W/m2
04:55 10.4 °C 10.3 °C 1009.4 hPa Calm   6.1 km/h 99% 0.0 mm 0 W/m2
05:00 10.3 °C 10.2 °C 1009.4 hPa Calm   6.1 km/h 99% 0.0 mm 0 W/m2
05:05 10.3 °C 10.2 °C 1009.0 hPa Calm   2.6 km/h 99% 0.0 mm 0 W/m2
05:10 10.2 °C 10.1 °C 1009.0 hPa Calm   2.6 km/h 99% 0.0 mm 0 W/m2
05:15 10.0 °C 9.8 °C 1009.4 hPa Calm   2.6 km/h 99% 0.0 mm 0 W/m2
05:20 9.8 °C 9.7 °C 1009.0 hPa Calm   1.1 km/h 99% 0.0 mm 0 W/m2
05:25 9.8 °C 9.7 °C 1009.4 hPa Calm   2.6 km/h 99% 0.0 mm 0 W/m2
05:30 9.7 °C 9.6 °C 1009.4 hPa Calm   2.6 km/h 99% 0.0 mm 0 W/m2
05:35 9.6 °C 9.4 °C 1009.4 hPa Calm   1.1 km/h 99% 0.0 mm 0 W/m2
05:40 9.5 °C 9.3 °C 1009.4 hPa Calm   1.1 km/h 99% 0.0 mm 0 W/m2
05:45 9.5 °C 9.3 °C 1009.4 hPa Calm   1.1 km/h 99% 0.0 mm 0 W/m2
05:50 9.3 °C 9.2 °C 1009.4 hPa Calm     99% 0.0 mm 0 W/m2
05:56 9.2 °C 9.1 °C 1009.4 hPa Calm   1.1 km/h 99% 0.0 mm 0 W/m2
06:01 9.1 °C 8.9 °C 1009.4 hPa NE 1.1 km/h 2.6 km/h 99% 0.0 mm 0 W/m2
06:06 8.9 °C 8.8 °C 1009.4 hPa NE 1.1 km/h 2.6 km/h 99% 0.0 mm 0 W/m2
06:11 8.7 °C 8.6 °C 1009.4 hPa Calm   2.6 km/h 99% 0.0 mm 0 W/m2
06:16 8.6 °C 8.4 °C 1009.4 hPa Calm   2.6 km/h 99% 0.0 mm 0 W/m2
06:21 8.5 °C 8.3 °C 1009.4 hPa Calm   2.6 km/h 99% 0.0 mm 0 W/m2
06:26 8.4 °C 8.3 °C 1009.4 hPa Calm   2.6 km/h 99% 0.0 mm 0 W/m2
06:31 8.6 °C 8.4 °C 1009.7 hPa NW 3.5 km/h 3.5 km/h 99% 0.0 mm 0 W/m2
06:36 8.6 °C 8.4 °C 1009.7 hPa North 2.6 km/h 5.0 km/h 99% 0.0 mm 0 W/m2
06:42 8.5 °C 8.3 °C 1009.7 hPa North 2.6 km/h 5.0 km/h 99% 0.0 mm 2 W/m2
06:47 8.3 °C 8.2 °C 1010.0 hPa WNW 2.6 km/h 5.0 km/h 99% 0.0 mm 5 W/m2
06:52 8.3 °C 8.2 °C 1010.0 hPa West 2.6 km/h 5.0 km/h 99% 0.0 mm 9 W/m2
06:57 8.6 °C 8.4 °C 1010.0 hPa NW 5.0 km/h 6.1 km/h 99% 0.0 mm 15 W/m2
07:02 8.8 °C 8.7 °C 1010.0 hPa NW 5.0 km/h 7.2 km/h 99% 0.0 mm 18 W/m2
07:07 9.0 °C 8.8 °C 1010.4 hPa NW 3.5 km/h 7.2 km/h 99% 0.0 mm 27 W/m2
07:12 9.0 °C 8.8 °C 1010.0 hPa NW 3.5 km/h 7.2 km/h 99% 0.0 mm 25 W/m2
07:17 9.0 °C 8.8 °C 1010.4 hPa NNW 6.1 km/h 9.7 km/h 99% 0.0 mm 24 W/m2
07:22 9.0 °C 8.8 °C 1010.4 hPa North 2.6 km/h 9.7 km/h 99% 0.0 mm 24 W/m2
07:27 9.0 °C 8.8 °C 1010.4 hPa NNW 6.1 km/h 8.7 km/h 99% 0.0 mm 26 W/m2
07:32 8.9 °C 8.8 °C 1010.7 hPa NNW 7.2 km/h 11.1 km/h 99% 0.0 mm 30 W/m2
07:37 8.9 °C 8.8 °C 1010.7 hPa NNW 3.5 km/h 11.1 km/h 99% 0.0 mm 35 W/m2
07:42 9.0 °C 8.8 °C 1010.7 hPa North 2.6 km/h 9.7 km/h 99% 0.0 mm 40 W/m2
07:47 9.0 °C 8.8 °C 1010.7 hPa North 2.6 km/h 8.7 km/h 99% 0.0 mm 42 W/m2
07:52 9.1 °C 8.9 °C 1010.7 hPa North 3.5 km/h 6.1 km/h 99% 0.0 mm 58 W/m2
07:57 9.1 °C 8.9 °C 1010.7 hPa North 5.0 km/h 8.7 km/h 99% 0.0 mm 44 W/m2
08:02 9.3 °C 9.2 °C 1011.1 hPa NNW 3.5 km/h 8.7 km/h 99% 0.0 mm 47 W/m2
08:07 9.3 °C 9.2 °C 1011.1 hPa NW 2.6 km/h 7.2 km/h 99% 0.0 mm 51 W/m2
08:12 9.4 °C 9.3 °C 1011.1 hPa NNW 3.5 km/h 7.2 km/h 99% 0.0 mm 57 W/m2
08:17 9.5 °C 9.3 °C 1011.4 hPa North 2.6 km/h 6.1 km/h 99% 0.0 mm 60 W/m2
08:22 9.6 °C 9.4 °C 1011.1 hPa North 3.5 km/h 6.1 km/h 99% 0.0 mm 62 W/m2
08:27 9.8 °C 9.7 °C 1011.4 hPa North 3.5 km/h 7.2 km/h 99% 0.0 mm 79 W/m2
08:32 10.0 °C 9.8 °C 1011.4 hPa NNW 5.0 km/h 7.2 km/h 99% 0.0 mm 83 W/m2
08:37 10.1 °C 9.9 °C 1011.4 hPa North 5.0 km/h 7.2 km/h 99% 0.0 mm 85 W/m2
08:42 10.3 °C 10.2 °C 1011.4 hPa North 3.5 km/h 7.2 km/h 99% 0.0 mm 82 W/m2
08:47 10.4 °C 10.3 °C 1011.4 hPa NNW 2.6 km/h 6.1 km/h 99% 0.0 mm 83 W/m2
08:52 10.4 °C 10.3 °C 1011.4 hPa NNW 3.5 km/h 6.1 km/h 99% 0.0 mm 84 W/m2
08:57 10.4 °C 10.3 °C 1011.4 hPa NNW 5.0 km/h 7.2 km/h 99% 0.0 mm 88 W/m2
09:02 10.4 °C 10.3 °C 1011.4 hPa North 1.1 km/h 8.7 km/h 99% 0.0 mm 99 W/m2
09:07 10.6 °C 10.4 °C 1011.4 hPa North 5.0 km/h 8.7 km/h 99% 0.0 mm 112 W/m2
09:12 10.7 °C 10.6 °C 1011.4 hPa North 7.2 km/h 9.7 km/h 99% 0.0 mm 174 W/m2
09:17 10.8 °C 10.7 °C 1011.7 hPa North 7.2 km/h 11.1 km/h 99% 0.0 mm 178 W/m2
09:22 11.0 °C 10.7 °C 1011.4 hPa North 5.0 km/h 11.1 km/h 98% 0.0 mm 159 W/m2
09:27 11.3 °C 11.0 °C 1011.4 hPa North 2.6 km/h 11.1 km/h 98% 0.0 mm 148 W/m2
09:32 11.6 °C 11.3 °C 1011.4 hPa NNW 2.6 km/h 11.1 km/h 98% 0.0 mm 164 W/m2
09:37 11.7 °C 11.4 °C 1011.7 hPa NW 3.5 km/h 7.2 km/h 98% 0.0 mm 158 W/m2
09:42 12.0 °C 11.6 °C 1011.7 hPa NNW 6.1 km/h 7.2 km/h 97% 0.0 mm 245 W/m2
09:47 13.4 °C 12.9 °C 1011.7 hPa North 2.6 km/h 7.2 km/h 97% 0.0 mm 234 W/m2
09:52 14.1 °C 13.2 °C 1012.1 hPa North 5.0 km/h 7.2 km/h 94% 0.0 mm 224 W/m2
09:57 14.3 °C 12.5 °C 1012.1 hPa NNW 3.5 km/h 7.2 km/h 89% 0.3 mm 208 W/m2
10:02 14.9 °C 12.4 °C 1012.1 hPa NW 5.0 km/h 7.2 km/h 85% 0.3 mm 157 W/m2
10:07 16.0 °C 12.6 °C 1011.7 hPa NW 2.6 km/h 7.2 km/h 80% 0.3 mm 133 W/m2
10:12 16.5 °C 11.8 °C 1012.1 hPa NNW 2.6 km/h 6.1 km/h 74% 0.3 mm 219 W/m2
10:17 17.2 °C 11.9 °C 1012.1 hPa WNW 1.1 km/h 7.2 km/h 71% 0.3 mm 181 W/m2
10:22 15.8 °C 11.0 °C 1012.4 hPa SW 8.7 km/h 9.7 km/h 73% 0.3 mm 150 W/m2
10:27 14.4 °C 10.6 °C 1012.1 hPa SSW 6.1 km/h 12.2 km/h 78% 0.3 mm 162 W/m2
10:32 13.5 °C 10.5 °C 1012.1 hPa SSW 9.7 km/h 15.8 km/h 82% 0.3 mm 110 W/m2
10:37 13.0 °C 10.6 °C 1012.1 hPa SSW 9.7 km/h 15.8 km/h 85% 0.3 mm 83 W/m2
10:42 12.6 °C 10.2 °C 1012.1 hPa SSW 9.7 km/h 14.8 km/h 85% 0.3 mm 72 W/m2
10:47 12.3 °C 10.1 °C 1012.1 hPa SW 7.2 km/h 13.4 km/h 86% 0.3 mm 63 W/m2
10:52 12.2 °C 10.1 °C 1011.7 hPa SW 9.7 km/h 14.8 km/h 87% 0.3 mm 77 W/m2
10:57 12.0 °C 9.9 °C 1011.7 hPa SW 8.7 km/h 17.2 km/h 87% 0.0 mm 86 W/m2
11:02 12.0 °C 9.9 °C 1011.4 hPa SW 11.1 km/h 17.2 km/h 87% 0.0 mm 79 W/m2
11:07 11.9 °C 10.0 °C 1011.4 hPa SW 6.1 km/h 17.2 km/h 88% 0.0 mm 77 W/m2
11:12 12.0 °C 10.1 °C 1011.4 hPa SW 8.7 km/h 15.8 km/h 88% 0.0 mm 103 W/m2
11:17 12.0 °C 10.1 °C 1011.4 hPa SW 11.1 km/h 15.8 km/h 88% 0.0 mm 102 W/m2
11:22 12.2 °C 10.3 °C 1011.4 hPa SW 9.7 km/h 18.3 km/h 88% 0.0 mm 104 W/m2
11:27 12.2 °C 10.3 °C 1011.1 hPa SW 7.2 km/h 18.3 km/h 88% 0.0 mm 91 W/m2
11:32 12.3 °C 10.4 °C 1011.4 hPa SW 11.1 km/h 15.8 km/h 88% 0.0 mm 78 W/m2
11:37 12.4 °C 10.3 °C 1011.1 hPa SW 3.5 km/h 14.8 km/h 87% 0.0 mm 90 W/m2
11:42 12.5 °C 10.2 °C 1011.1 hPa SSW 6.1 km/h 13.4 km/h 86% 0.0 mm 116 W/m2
11:47 12.5 °C 10.4 °C 1011.1 hPa SSW 7.2 km/h 12.2 km/h 87% 0.0 mm 79 W/m2
11:52 12.4 °C 10.3 °C 1011.1 hPa SSW 7.2 km/h 12.2 km/h 87% 0.0 mm 53 W/m2
11:57 12.2 °C 10.1 °C 1011.1 hPa South 9.7 km/h 14.8 km/h 87% 0.0 mm 56 W/m2
12:02 12.0 °C 10.2 °C 1011.1 hPa South 9.7 km/h 18.3 km/h 89% 0.0 mm 72 W/m2
12:07 11.9 °C 10.7 °C 1011.1 hPa South 7.2 km/h 18.3 km/h 92% 0.0 mm 97 W/m2
12:12 11.7 °C 10.4 °C 1011.1 hPa SSE 12.2 km/h 21.9 km/h 92% 0.0 mm 113 W/m2
12:17 11.8 °C 10.6 °C 1010.7 hPa SSE 8.7 km/h 21.9 km/h 92% 0.0 mm 107 W/m2
12:22 11.7 °C 10.6 °C 1010.7 hPa SSE 9.7 km/h 18.3 km/h 93% 0.0 mm 102 W/m2
12:27 11.6 °C 10.5 °C 1010.7 hPa SSE 13.4 km/h 24.5 km/h 93% 0.3 mm 151 W/m2
12:32 11.6 °C 10.7 °C 1010.7 hPa South 12.2 km/h 24.5 km/h 94% 0.3 mm 202 W/m2
12:37 11.7 °C 10.8 °C 1010.7 hPa South 11.1 km/h 20.9 km/h 94% 0.3 mm 166 W/m2
12:42 11.6 °C 10.7 °C 1010.7 hPa SSE 12.2 km/h 20.9 km/h 94% 0.3 mm 155 W/m2
12:47 11.6 °C 10.7 °C 1010.7 hPa South 13.4 km/h 21.9 km/h 94% 0.3 mm 177 W/m2
12:52 11.7 °C 10.8 °C 1010.7 hPa South 8.7 km/h 21.9 km/h 94% 0.3 mm 171 W/m2
12:57 11.7 °C 10.6 °C 1010.7 hPa South 12.2 km/h 18.3 km/h 93% 0.3 mm 199 W/m2
13:02 11.7 °C 10.4 °C 1010.4 hPa South 13.4 km/h 21.9 km/h 92% 0.3 mm 143 W/m2
13:07 11.8 °C 10.6 °C 1010.7 hPa South 9.7 km/h 21.9 km/h 92% 0.3 mm 123 W/m2
13:12 11.9 °C 10.7 °C 1010.4 hPa South 17.2 km/h 23.3 km/h 92% 0.3 mm 120 W/m2
13:17 11.8 °C 10.6 °C 1010.4 hPa South 14.8 km/h 23.3 km/h 92% 0.3 mm 155 W/m2
13:22 11.9 °C 10.7 °C 1010.4 hPa South 13.4 km/h 23.3 km/h 92% 0.3 mm 162 W/m2
13:27 11.9 °C 10.7 °C 1010.4 hPa South 8.7 km/h 23.3 km/h 92% 0.0 mm 128 W/m2
13:32 11.9 °C 10.7 °C 1010.4 hPa South 8.7 km/h 23.3 km/h 92% 0.0 mm 140 W/m2
13:37 12.0 °C 10.6 °C 1010.4 hPa South 12.2 km/h 19.5 km/h 91% 0.0 mm 106 W/m2
13:42 11.9 °C 10.5 °C 1010.4 hPa SSE 9.7 km/h 20.9 km/h 91% 0.0 mm 128 W/m2
13:47 11.9 °C 10.5 °C 1010.4 hPa South 9.7 km/h 20.9 km/h 91% 0.0 mm 145 W/m2
13:52 11.9 °C 10.3 °C 1010.4 hPa South 8.7 km/h 19.5 km/h 90% 0.0 mm 169 W/m2
13:57 12.1 °C 10.2 °C 1010.4 hPa SSE 9.7 km/h 15.8 km/h 88% 0.0 mm 115 W/m2
14:02 12.0 °C 9.9 °C 1010.0 hPa SSE 9.7 km/h 18.3 km/h 87% 0.0 mm 79 W/m2
14:07 11.8 °C 9.7 °C 1010.0 hPa South 12.2 km/h 19.5 km/h 87% 0.0 mm 107 W/m2
14:12 11.9 °C 9.8 °C 1010.0 hPa South 8.7 km/h 19.5 km/h 87% 0.0 mm 120 W/m2
14:17 11.9 °C 9.8 °C 1010.0 hPa South 9.7 km/h 18.3 km/h 87% 0.0 mm 100 W/m2
14:22 11.9 °C 9.6 °C 1010.0 hPa South 11.1 km/h 18.3 km/h 86% 0.0 mm 98 W/m2
14:27 11.9 °C 9.6 °C 1010.0 hPa South 11.1 km/h 19.5 km/h 86% 0.0 mm 89 W/m2
14:32 11.9 °C 9.4 °C 1010.0 hPa South 12.2 km/h 20.9 km/h 85% 0.0 mm 82 W/m2
14:37 11.9 °C 9.6 °C 1010.0 hPa South 13.4 km/h 20.9 km/h 86% 0.0 mm 64 W/m2
14:42 11.7 °C 9.6 °C 1010.0 hPa South 11.1 km/h 17.2 km/h 87% 0.0 mm 59 W/m2
14:47 11.6 °C 9.7 °C 1010.0 hPa South 5.0 km/h 19.5 km/h 88% 0.0 mm 55 W/m2
14:52 11.6 °C 9.7 °C 1010.0 hPa South 12.2 km/h 19.5 km/h 88% 0.0 mm 56 W/m2
14:57 11.6 °C 9.5 °C 1010.0 hPa South 11.1 km/h 19.5 km/h 87% 0.0 mm 55 W/m2
15:02 11.6 °C 9.7 °C 1010.0 hPa South 12.2 km/h 18.3 km/h 88% 0.0 mm 43 W/m2
15:07 11.5 °C 9.4 °C 1010.0 hPa South 6.1 km/h 18.3 km/h 87% 0.0 mm 34 W/m2
15:15 11.5 °C 9.4 °C 1010.0 hPa South 8.7 km/h 17.2 km/h 87% 0.0 mm 32 W/m2
15:20 11.5 °C 9.4 °C 1010.0 hPa SSE 11.1 km/h 17.2 km/h 87% 0.0 mm 34 W/m2
15:25 11.5 °C 9.4 °C 1009.7 hPa South 7.2 km/h 17.2 km/h 87% 0.0 mm 39 W/m2
15:28 11.5 °C 9.4 °C 1009.7 hPa South 7.2 km/h 17.2 km/h 87% 0.0 mm 39 W/m2
15:33 11.6 °C 9.5 °C 1010.0 hPa South 6.1 km/h 14.8 km/h 87% 0.0 mm 37 W/m2
15:38 11.6 °C 9.5 °C 1010.0 hPa South 7.2 km/h 13.4 km/h 87% 0.0 mm 44 W/m2
15:41 11.6 °C 9.5 °C 1010.0 hPa South 6.1 km/h 13.4 km/h 87% 0.0 mm 53 W/m2
15:46 11.7 °C 9.6 °C 1010.0 hPa South 6.1 km/h 18.3 km/h 87% 0.0 mm 49 W/m2
15:51 11.7 °C 9.6 °C 1010.0 hPa SSE 3.5 km/h 18.3 km/h 87% 0.0 mm 25 W/m2
15:52 11.7 °C 9.6 °C 1010.0 hPa SSE 6.1 km/h 15.8 km/h 87% 0.0 mm 24 W/m2
15:57 11.6 °C 9.5 °C 1010.0 hPa South 6.1 km/h 14.8 km/h 87% 0.0 mm 27 W/m2
16:02 11.6 °C 9.3 °C 1010.0 hPa South 3.5 km/h 15.8 km/h 86% 0.0 mm 24 W/m2
16:07 11.6 °C 9.3 °C 1010.0 hPa South 9.7 km/h 15.8 km/h 86% 0.0 mm 18 W/m2
16:12 11.6 °C 9.3 °C 1010.0 hPa South 6.1 km/h 15.8 km/h 86% 0.0 mm 17 W/m2
16:17 11.6 °C 9.3 °C 1010.0 hPa SSE 5.0 km/h 14.8 km/h 86% 0.0 mm 19 W/m2
16:21 11.6 °C 9.3 °C 1010.0 hPa South 8.7 km/h 12.2 km/h 86% 0.0 mm 18 W/m2
16:26 11.6 °C 9.3 °C 1010.0 hPa SSE 11.1 km/h 18.3 km/h 86% 0.0 mm 20 W/m2
16:31 11.5 °C 9.2 °C 1010.0 hPa South 11.1 km/h 18.3 km/h 86% 0.0 mm 19 W/m2
16:36 11.4 °C 9.3 °C 1010.0 hPa South 6.1 km/h 18.3 km/h 87% 0.0 mm 18 W/m2
16:41 11.3 °C 9.2 °C 1010.0 hPa SSE 5.0 km/h 17.2 km/h 87% 0.0 mm 15 W/m2
16:46 11.1 °C 9.2 °C 1010.0 hPa SE 5.0 km/h 14.8 km/h 88% 0.0 mm 8 W/m2
16:51 11.1 °C 9.3 °C 1010.0 hPa SE 8.7 km/h 13.4 km/h 89% 0.0 mm 7 W/m2
16:56 10.9 °C 9.5 °C 1010.0 hPa SSE 5.0 km/h 13.4 km/h 91% 0.0 mm 4 W/m2
17:01 10.9 °C 9.7 °C 1010.0 hPa SSE 1.1 km/h 13.4 km/h 92% 0.3 mm 4 W/m2
17:06 10.9 °C 9.7 °C 1010.0 hPa SSE 6.1 km/h 12.2 km/h 92% 0.3 mm 2 W/m2
17:11 10.8 °C 9.7 °C 1010.4 hPa SSE 5.0 km/h 12.2 km/h 93% 0.5 mm 2 W/m2
17:16 10.8 °C 9.7 °C 1010.0 hPa Calm   8.7 km/h 93% 0.5 mm 0 W/m2
17:21 10.8 °C 9.7 °C 1010.0 hPa Calm   6.1 km/h 93% 0.5 mm 0 W/m2
17:26 10.7 °C 9.6 °C 1010.0 hPa South 5.0 km/h 8.7 km/h 93% 0.5 mm 0 W/m2
17:31 10.8 °C 9.7 °C 1010.4 hPa South 2.6 km/h 8.7 km/h 93% 0.5 mm 0 W/m2
17:36 10.8 °C 9.7 °C 1010.4 hPa SSE 5.0 km/h 8.7 km/h 93% 0.5 mm 0 W/m2
17:41 10.8 °C 9.7 °C 1010.4 hPa SSE 3.5 km/h 12.2 km/h 93% 1.0 mm 0 W/m2
17:46 10.8 °C 9.9 °C 1010.4 hPa SSE 2.6 km/h 12.2 km/h 94% 1.0 mm 0 W/m2
17:51 10.7 °C 9.8 °C 1010.4 hPa Calm   6.1 km/h 94% 1.0 mm 0 W/m2
17:56 10.6 °C 9.7 °C 1010.4 hPa SE 3.5 km/h 8.7 km/h 94% 1.3 mm 0 W/m2
18:01 10.6 °C 9.7 °C 1010.4 hPa Calm   8.7 km/h 94% 1.0 mm 0 W/m2
18:06 10.6 °C 9.7 °C 1010.7 hPa SSE 1.1 km/h 8.7 km/h 94% 1.0 mm 0 W/m2
18:11 10.5 °C 9.6 °C 1010.7 hPa SE 1.1 km/h 7.2 km/h 94% 0.5 mm 0 W/m2
18:16 10.6 °C 9.8 °C 1010.7 hPa Calm   7.2 km/h 95% 0.5 mm 0 W/m2
18:21 10.6 °C 9.8 °C 1010.7 hPa SE 1.1 km/h 6.1 km/h 95% 1.0 mm 0 W/m2
18:26 10.6 °C 9.8 °C 1010.7 hPa Calm   3.5 km/h 95% 1.0 mm 0 W/m2
18:31 10.6 °C 9.8 °C 1010.4 hPa Calm   3.5 km/h 95% 1.3 mm 0 W/m2
18:36 10.6 °C 9.8 °C 1010.4 hPa Calm   3.5 km/h 95% 1.3 mm 0 W/m2
18:43 10.6 °C 9.8 °C 1010.7 hPa West 1.1 km/h 2.6 km/h 95% 1.0 mm 0 W/m2
18:48 10.6 °C 9.8 °C 1010.7 hPa Calm   2.6 km/h 95% 1.0 mm 0 W/m2
18:53 10.6 °C 9.8 °C 1010.7 hPa Calm   2.6 km/h 95% 0.5 mm 0 W/m2
18:59 10.6 °C 10.0 °C 1010.7 hPa North 5.0 km/h 6.1 km/h 96% 0.5 mm 0 W/m2
19:04 10.6 °C 10.0 °C 1010.7 hPa NNW 2.6 km/h 6.1 km/h 96% 0.5 mm 0 W/m2
19:09 10.5 °C 9.9 °C 1010.7 hPa Calm   6.1 km/h 96% 0.5 mm 0 W/m2
19:14 10.5 °C 9.9 °C 1010.7 hPa NNW 5.0 km/h 7.2 km/h 96% 0.5 mm 0 W/m2
19:19 10.5 °C 9.9 °C 1010.7 hPa NW 1.1 km/h 7.2 km/h 96% 0.5 mm 0 W/m2
19:24 10.5 °C 10.1 °C 1010.7 hPa NNW 2.6 km/h 6.1 km/h 97% 0.3 mm 0 W/m2
19:30 10.5 °C 10.1 °C 1010.7 hPa NNW 1.1 km/h 6.1 km/h 97% 0.3 mm 0 W/m2
19:35 10.5 °C 10.1 °C 1010.7 hPa Calm   3.5 km/h 97% 0.0 mm 0 W/m2
19:40 10.5 °C 10.1 °C 1010.7 hPa WNW 3.5 km/h 5.0 km/h 97% 0.0 mm 0 W/m2
19:45 10.5 °C 10.1 °C 1010.7 hPa NW 2.6 km/h 5.0 km/h 97% 0.0 mm 0 W/m2
19:50 10.5 °C 10.1 °C 1010.7 hPa Calm   5.0 km/h 97% 0.0 mm 0 W/m2
19:55 10.5 °C 10.2 °C 1010.7 hPa Calm   5.0 km/h 98% 0.0 mm 0 W/m2
20:00 10.5 °C 10.2 °C 1010.7 hPa Calm   3.5 km/h 98% 0.0 mm 0 W/m2
20:05 10.5 °C 10.2 °C 1010.7 hPa North 3.5 km/h 5.0 km/h 98% 0.0 mm 0 W/m2
20:10 10.5 °C 10.2 °C 1010.7 hPa Calm   5.0 km/h 98% 0.0 mm 0 W/m2
20:15 10.5 °C 10.2 °C 1010.7 hPa ENE 2.6 km/h 6.1 km/h 98% 0.0 mm 0 W/m2
20:20 10.6 °C 10.3 °C 1010.7 hPa East 3.5 km/h 7.2 km/h 98% 0.0 mm 0 W/m2
20:25 10.6 °C 10.3 °C 1010.7 hPa East 3.5 km/h 9.7 km/h 98% 0.0 mm 0 W/m2
20:30 10.8 °C 10.5 °C 1010.7 hPa East 3.5 km/h 9.7 km/h 98% 0.0 mm 0 W/m2
20:35 10.7 °C 10.4 °C 1010.7 hPa East 1.1 km/h 8.7 km/h 98% 0.0 mm 0 W/m2
20:40 10.7 °C 10.4 °C 1010.7 hPa East 2.6 km/h 6.1 km/h 98% 0.0 mm 0 W/m2
20:45 10.7 °C 10.4 °C 1010.7 hPa ESE 5.0 km/h 8.7 km/h 98% 0.3 mm 0 W/m2
20:50 10.7 °C 10.4 °C 1010.7 hPa SE 2.6 km/h 8.7 km/h 98% 0.3 mm 0 W/m2
20:55 10.6 °C 10.3 °C 1010.7 hPa SSE 2.6 km/h 8.7 km/h 98% 0.3 mm 0 W/m2
21:00 10.6 °C 10.3 °C 1010.7 hPa Calm   8.7 km/h 98% 0.3 mm 0 W/m2
21:05 10.6 °C 10.3 °C 1010.7 hPa SSE 1.1 km/h 5.0 km/h 98% 0.3 mm 0 W/m2
21:10 10.7 °C 10.4 °C 1010.7 hPa ESE 3.5 km/h 7.2 km/h 98% 0.3 mm 0 W/m2
21:15 10.8 °C 10.5 °C 1010.7 hPa SSE 5.0 km/h 14.8 km/h 98% 0.3 mm 0 W/m2
21:20 10.8 °C 10.3 °C 1010.7 hPa SSE 2.6 km/h 14.8 km/h 97% 0.3 mm 0 W/m2
21:25 10.8 °C 10.3 °C 1010.7 hPa SSE 5.0 km/h 9.7 km/h 97% 0.3 mm 0 W/m2
21:30 10.8 °C 10.3 °C 1010.7 hPa SE 3.5 km/h 8.7 km/h 97% 0.3 mm 0 W/m2
21:35 10.8 °C 10.3 °C 1010.7 hPa SE 6.1 km/h 11.1 km/h 97% 0.3 mm 0 W/m2
21:56 10.8 °C 10.3 °C 1010.7 hPa SSE 2.6 km/h 13.4 km/h 97% 0.0 mm 0 W/m2
22:01 10.8 °C 10.3 °C 1010.7 hPa SSE 6.1 km/h 13.4 km/h 97% 0.0 mm 0 W/m2
22:06 10.8 °C 10.3 °C 1010.7 hPa South 7.2 km/h 11.1 km/h 97% 0.3 mm 0 W/m2
22:11 10.8 °C 10.3 °C 1010.7 hPa South 8.7 km/h 11.1 km/h 97% 0.3 mm 0 W/m2
22:16 10.8 °C 10.3 °C 1010.7 hPa SSW 3.5 km/h 11.1 km/h 97% 0.3 mm 0 W/m2
22:21 10.8 °C 10.3 °C 1010.7 hPa South 7.2 km/h 11.1 km/h 97% 0.3 mm 0 W/m2
22:26 10.7 °C 10.2 °C 1010.4 hPa South 7.2 km/h 14.8 km/h 97% 0.3 mm 0 W/m2
22:31 10.7 °C 10.2 °C 1010.4 hPa South 2.6 km/h 14.8 km/h 97% 0.3 mm 0 W/m2
22:36 10.7 °C 10.2 °C 1010.4 hPa SSE 3.5 km/h 12.2 km/h 97% 0.5 mm 0 W/m2
22:41 10.7 °C 10.2 °C 1010.4 hPa SSE 3.5 km/h 12.2 km/h 97% 0.5 mm 0 W/m2
22:46 10.7 °C 10.2 °C 1010.7 hPa SSE 3.5 km/h 9.7 km/h 97% 0.5 mm 0 W/m2
22:51 10.7 °C 10.2 °C 1010.7 hPa SSE 5.0 km/h 11.1 km/h 97% 0.5 mm 0 W/m2
22:56 10.7 °C 10.2 °C 1010.4 hPa SSE 7.2 km/h 13.4 km/h 97% 1.0 mm 0 W/m2
23:01 10.6 °C 10.2 °C 1010.4 hPa SSE 3.5 km/h 13.4 km/h 97% 1.0 mm 0 W/m2
23:06 10.6 °C 10.2 °C 1010.4 hPa SSE 2.6 km/h 12.2 km/h 97% 0.5 mm 0 W/m2
23:11 10.6 °C 10.2 °C 1010.4 hPa SSE 5.0 km/h 9.7 km/h 97% 0.5 mm 0 W/m2
23:16 10.6 °C 10.3 °C 1010.7 hPa SE 5.0 km/h 13.4 km/h 98% 0.5 mm 0 W/m2
23:21 10.6 °C 10.3 °C 1010.4 hPa SE 3.5 km/h 13.4 km/h 98% 0.5 mm 0 W/m2
23:40 10.5 °C 10.2 °C 1010.4 hPa SSE 8.7 km/h 12.2 km/h 98% 0.3 mm 0 W/m2
23:45 10.4 °C 10.1 °C 1010.4 hPa SSE 3.5 km/h 13.4 km/h 98% 0.3 mm 0 W/m2
23:50 10.4 °C 10.1 °C 1010.0 hPa South 6.1 km/h 13.4 km/h 98% 0.3 mm 0 W/m2
23:55 10.4 °C 10.3 °C 1010.4 hPa South 2.6 km/h 9.7 km/h 99% 0.0 mm 0 W/m2
Northern Hawkes Bay. New Zealand Historic Data
Compliments of Weather Underground - 2.25 mb